Regional Weather Roundup
Issued by NWS

Home | Current Version | Previous Version | Text Only | Print | Product List | Glossary Off
Versions: 1 2 3 4 5 6 7 8 9 10 11 12 13 14 15 16 17 18 19 20 21 22 23 24 25 26 27 28 29 30 31 32 33 34 35 36 37 38 39 40 41 42 43 44 45 46 47 48 49 50

000
ASUS43 KFSD 160202
RWRSD

WEATHER ROUNDUP FOR SOUTH DAKOTA
NATIONAL WEATHER SERVICE SIOUX FALLS SD
900 PM CDT TUE AUG 15 2017

NOTE: "FAIR" INDICATES FEW OR NO CLOUDS BELOW 12,000 FEET WITH NO
SIGNIFICANT WEATHER AND/OR OBSTRUCTIONS TO VISIBILITY.


SDZ001>005-009-010-012>017-160300-
NORTHWEST AND NORTH CENTRAL SOUTH DAKOTA

CITY           SKY/WX    TMP DP  RH WIND       PRES   REMARKS
BUFFALO          N/A     66  58  75 NW5       29.84R
FAITH            N/A     67  66  97 N5        29.85R
MOBRIDGE       CLOUDY    69  67  93 NE5       29.78S
$$

SDZ012>016-024>037-041>051-057-063-072>074-160300-
SOUTHWEST AND SOUTH CENTRAL SOUTH DAKOTA

CITY           SKY/WX    TMP DP  RH WIND       PRES   REMARKS
RAPID CTY ARPT CLOUDY    68  56  65 N12       29.88R
PIERRE         CLOUDY    69  65  86 S8        29.78R
CUSTER         CLOUDY    60  55  83 MISG      29.99S
ELLSWORTH AFB  CLOUDY    68  57  67 N12       29.89R
PHILIP         CLOUDY    71  63  75 N9        29.82R
PINE RIDGE     LGT RAIN  68  64  87 NW10      29.89R
SPEARFISH      MOCLDY    64  52  63 NW6       29.96R
WINNER         CLOUDY    72  66  81 SE6       29.80R
$$

SDZ004>011-016>023-039-040-160300-
NORTHEAST SOUTH DAKOTA

CITY           SKY/WX    TMP DP  RH WIND       PRES   REMARKS
ABERDEEN       CLOUDY    69  63  81 SE6       29.82R
WATERTOWN      CLOUDY    66  63  90 SE7       29.86R
BROOKINGS      CLOUDY    66  62  87 SE9       29.88R
SISSETON         N/A     66  63  90 SE8       29.85R
$$

SDZ017-020-022-023-036>040-048>070-160300-
SOUTHEAST SOUTH DAKOTA

CITY           SKY/WX    TMP DP  RH WIND       PRES   REMARKS
SIOUX FALLS    CLOUDY    67  65  93 E12       29.86S
HURON          CLOUDY    69  64  84 SE10      29.80R
CHAMBERLAIN    CLOUDY    69  68  96 E8        29.80R
MITCHELL       CLOUDY    67  65  93 SE12      29.82R
YANKTON        LGT RAIN  67  66  97 SE3       29.82F
$$

ABBREVIATIONS USED IN REMARKS
   TC - TEMPERATURE IN CELSIUS
  WCI - WIND CHILL INDEX
   HX - HEAT INDEX
  VSB - VISIBILITY





USA.gov is the U.S. government's official web portal to all federal, state and local government web resources and services.